GW4240 Weather Reports


Display with metric or nautical units.
time (UTC)temp
F
wind
direction
speed
MPH
gust
MPH
rain 1hr
in
rain 24hr
in
rain mn
in
humidity
%
barometer
mb
20260506185523 56 170 3.0 7.0 0.00 0.00 0.00 85 1019.8
20260506185024 56 174 3.0 7.0 0.00 0.00 0.00 85 1019.7
20260506184549 56 141 2.0 7.0 0.00 0.00 0.00 86 1019.6
20260506184024 56 179 3.0 6.0 0.00 0.00 0.00 86 1019.6
20260506183522 56 152 3.0 6.0 0.00 0.00 0.00 86 1019.6
20260506183043 55 162 3.0 6.0 0.00 0.00 0.00 87 1019.6
20260506182521 55 190 2.0 6.0 0.00 0.00 0.00 86 1019.7
20260506182022 55 147 2.0 8.0 0.00 0.00 0.00 87 1019.6
20260506181544 55 145 3.0 8.0 0.00 0.00 0.00 86 1019.7
20260506181023 55 188 5.0 10.0 0.00 0.00 0.00 85 1019.6
20260506180523 55 168 4.0 10.0 0.00 0.00 0.00 86 1019.6
20260506180048 56 123 4.0 7.0 0.00 0.00 0.00 86 1019.6
20260506175522 56 165 2.0 7.0 0.00 0.00 0.00 87 1019.5
20260506175024 56 200 3.0 10.0 0.00 0.00 0.00 88 1019.5
20260506174537 55 123 5.0 10.0 0.00 0.00 0.00 87 1019.5
20260506174022 55 157 3.0 9.0 0.00 0.00 0.00 87 1019.4
20260506173522 55 212 3.0 9.0 0.00 0.00 0.00 87 1019.4
20260506173041 55 150 4.0 7.0 0.00 0.00 0.00 87 1019.4
20260506172525 55 238 3.0 7.0 0.00 0.00 0.00 86 1019.4
20260506172021 55 141 1.0 7.0 0.00 0.00 0.00 86 1019.5
20260506171545 55 214 2.0 7.0 0.00 0.00 0.00 86 1019.4
20260506171024 55 141 2.0 8.0 0.00 0.00 0.00 86 1019.2
20260506170523 55 171 2.0 9.0 0.00 0.00 0.00 86 1019.3
20260506170043 54 115 4.0 9.0 0.00 0.00 0.00 86 1019.3
20260506165523 55 196 3.0 9.0 0.00 0.00 0.00 87 1019.2
20260506165024 55 129 3.0 9.0 0.00 0.00 0.00 87 1019.1
20260506164538 54 188 5.0 13.0 0.00 0.00 0.00 87 1019.2
20260506164023 54 207 5.0 13.0 0.00 0.00 0.00 88 1019.1
20260506163521 54 137 7.0 12.0 0.00 0.00 0.00 87 1019.1
20260506163039 54 132 8.0 12.0 0.00 0.00 0.00 87 1019.2
20260506162521 54 143 5.0 9.0 0.00 0.00 0.00 87 1019.2
20260506162022 54 141 2.0 6.0 0.00 0.00 0.00 87 1019.2
20260506161554 54 143 3.0 6.0 0.00 0.00 0.00 87 1019.2
20260506161026 54 127 3.0 6.0 0.00 0.00 0.00 87 1019.3
20260506160524 54 146 2.0 8.0 0.00 0.00 0.00 87 1019.3
20260506160046 54 120 3.0 8.0 0.00 0.00 0.00 87 1019.3
20260506155521 54 162 3.0 8.0 0.00 0.00 0.00 88 1019.3
20260506155024 54 133 3.0 7.0 0.00 0.00 0.00 87 1019.2
20260506154548 54 122 3.0 7.0 0.00 0.00 0.00 88 1019.3
20260506154024 54 197 3.0 7.0 0.00 0.00 0.00 88 1019.3
20260506153523 54 208 4.0 9.0 0.00 0.00 0.00 88 1019.4
20260506153041 53 142 4.0 9.0 0.00 0.00 0.00 88 1019.3
20260506152521 53 184 5.0 9.0 0.00 0.00 0.00 88 1019.2
20260506152021 53 193 3.0 7.0 0.00 0.00 0.00 88 1019.2
20260506151541 53 146 3.0 6.0 0.00 0.00 0.00 88 1019.2
20260506151025 53 201 3.0 8.0 0.00 0.00 0.00 88 1019.1
20260506150525 53 180 4.0 10.0 0.00 0.00 0.00 88 1019.1
20260506150043 53 191 4.0 13.0 0.00 0.00 0.00 89 1018.9
20260506145522 53 141 7.0 15.0 0.00 0.00 0.00 89 1018.8
20260506145024 53 153 8.0 17.0 0.00 0.00 0.00 89 1018.7
20260506144558 53 108 10.0 17.0 0.00 0.00 0.00 89 1018.5
20260506144024 53 117 6.0 14.0 0.00 0.00 0.00 90 1018.5
20260506143521 53 146 5.0 10.0 0.00 0.00 0.00 89 1018.4
20260506143046 53 153 3.0 11.0 0.00 0.00 0.00 89 1018.5
20260506142525 53 160 3.0 13.0 0.00 0.00 0.00 90 1018.6
20260506142024 53 117 8.0 16.0 0.00 0.00 0.00 90 1018.6
20260506141543 53 127 9.0 16.0 0.00 0.00 0.00 89 1018.4
20260506141024 53 151 7.0 13.0 0.00 0.00 0.00 90 1018.3
20260506140524 53 140 7.0 13.0 0.00 0.00 0.00 90 1018.3
20260506140042 53 127 6.0 12.0 0.00 0.00 0.00 89 1018.4
20260506135523 53 166 4.0 11.0 0.00 0.00 0.00 89 1018.4
20260506135024 53 254 5.0 11.0 0.00 0.00 0.00 90 1018.3
20260506134540 53 130 6.0 11.0 0.00 0.00 0.00 90 1018.1
20260506134024 53 130 4.0 10.0 0.00 0.00 0.00 90 1018.3
20260506133524 53 127 4.0 10.0 0.00 0.00 0.00 90 1018.3
20260506133045 53 171 4.0 7.0 0.00 0.00 0.00 90 1018.3
20260506132529 53 164 4.0 9.0 0.00 0.00 0.00 90 1018.2
20260506132025 53 132 3.0 13.0 0.00 0.00 0.00 90 1018.1
20260506131545 53 138 3.0 13.0 0.00 0.00 0.00 90 1018.0
20260506131021 53 166 7.0 13.0 0.00 0.00 0.00 90 1017.8
20260506130522 53 146 7.0 11.0 0.00 0.00 0.00 90 1017.8
20260506130049 53 142 7.0 11.0 0.00 0.00 0.00 90 1017.7
20260506125525 53 244 5.0 11.0 0.00 0.00 0.00 90 1017.7
20260506125021 53 131 5.0 10.0 0.00 0.00 0.00 90 1017.6
20260506124545 54 158 4.0 12.0 0.00 0.00 0.00 91 1017.6
20260506124024 54 141 4.0 19.0 0.00 0.00 0.00 91 1017.7
20260506123524 53 131 9.0 19.0 0.00 0.00 0.00 90 1017.8
20260506123041 53 135 8.0 17.0 0.00 0.00 0.00 90 1017.7
20260506122522 53 146 7.0 11.0 0.00 0.00 0.00 90 1017.7
20260506122024 53 117 5.0 8.0 0.00 0.00 0.00 90 1017.6
20260506121540 53 141 4.0 9.0 0.00 0.00 0.00 91 1017.7
20260506121025 53 130 4.0 9.0 0.00 0.00 0.00 91 1017.9
20260506120525 53 205 3.0 8.0 0.00 0.00 0.00 92 1017.8
20260506120040 53 137 5.0 10.0 0.00 0.00 0.00 91 1017.7
20260506115524 53 120 6.0 10.0 0.00 0.00 0.00 91 1017.6
20260506115024 53 108 5.0 8.0 0.00 0.00 0.00 90 1017.6
20260506114537 53 131 5.0 8.0 0.00 0.00 0.00 91 1017.6
20260506114024 53 112 4.0 7.0 0.00 0.00 0.00 91 1017.5
20260506113521 53 144 4.0 12.0 0.00 0.00 0.00 91 1017.4
20260506113037 53 251 6.0 12.0 0.00 0.00 0.00 92 1017.4
20260506112521 53 125 8.0 12.0 0.00 0.00 0.00 92 1017.2
20260506112025 52 103 6.0 10.0 0.00 0.00 0.00 92 1017.1
20260506111543 52 136 5.0 12.0 0.00 0.00 0.00 91 1017.1
20260506111024 52 89 5.0 12.0 0.00 0.00 0.00 91 1016.9
20260506110521 53 75 6.0 12.0 0.00 0.00 0.00 91 1016.9
20260506110043 53 128 4.0 11.0 0.00 0.00 0.00 91 1017.1
20260506105526 53 139 6.0 11.0 0.00 0.00 0.00 91 1016.9
20260506105028 53 111 4.0 10.0 0.00 0.00 0.00 92 1017.0
20260506104547 53 129 5.0 10.0 0.00 0.00 0.00 93 1016.9
20260506104027 52 137 4.0 9.0 0.00 0.00 0.00 93 1016.8
20260506103523 52 142 5.0 10.0 0.00 0.00 0.00 93 1016.7
20260506103040 52 77 5.0 10.0 0.00 0.00 0.00 93 1016.5
20260506102525 52 107 4.0 7.0 0.00 0.00 0.00 93 1016.5
20260506102022 52 73 5.0 7.0 0.00 0.00 0.00 92 1016.4
20260506101537 52 110 3.0 6.0 0.00 0.00 0.00 92 1016.4
20260506101021 52 97 3.0 6.0 0.00 0.00 0.00 92 1016.3
20260506100524 53 82 3.0 7.0 0.00 0.00 0.00 92 1016.3
20260506100044 53 123 4.0 7.0 0.00 0.00 0.00 92 1016.4
20260506095521 52 100 4.0 9.0 0.00 0.00 0.00 92 1016.3
20260506095021 52 79 4.0 9.0 0.00 0.00 0.00 92 1016.3
20260506094546 52 68 4.0 6.0 0.00 0.00 0.00 92 1016.3
20260506094022 53 83 3.0 6.0 0.00 0.00 0.00 92 1016.2
20260506093522 53 102 4.0 6.0 0.00 0.00 0.00 92 1016.2
20260506093043 53 89 3.0 5.0 0.00 0.00 0.00 91 1016.1
20260506092521 53 105 3.0 4.0 0.00 0.00 0.00 91 1016.2
20260506092021 53 73 2.0 7.0 0.00 0.00 0.00 91 1016.1
20260506091543 53 94 4.0 7.0 0.00 0.00 0.00 91 1016.1
20260506091021 53 91 3.0 9.0 0.00 0.00 0.00 91 1016.1
20260506090521 53 104 4.0 9.0 0.00 0.00 0.00 91 1016.0
20260506090041 53 94 3.0 6.0 0.00 0.00 0.00 91 1015.9
20260506085521 53 107 2.0 4.0 0.00 0.00 0.00 91 1015.8
20260506085020 53 101 2.0 5.0 0.00 0.00 0.00 90 1015.9
20260506084538 53 99 2.0 5.0 0.00 0.00 0.00 90 1016.0
20260506084022 53 98 3.0 5.0 0.00 0.00 0.00 90 1015.9
20260506083522 54 124 3.0 5.0 0.00 0.00 0.00 90 1015.9
20260506083038 54 84 2.0 5.0 0.00 0.00 0.00 90 1015.9
20260506082521 54 86 4.0 6.0 0.00 0.00 0.00 90 1015.9
20260506082021 54 91 3.0 8.0 0.00 0.00 0.00 90 1016.0
20260506081544 54 108 1.0 8.0 0.00 0.00 0.00 90 1016.0
20260506081021 54 133 2.0 7.0 0.00 0.00 0.00 90 1015.8
20260506080521 54 116 3.0 7.0 0.00 0.00 0.00 90 1015.9
20260506073521 55 85 2.0 6.0 0.00 0.00 0.00 89 1015.6
20260506073037 55 130 3.0 6.0 0.00 0.00 0.00 89 1015.5
20260506072524 55 120 2.0 5.0 0.00 0.00 0.00 89 1015.7
20260506072022 55 103 3.0 5.0 0.00 0.00 0.00 89 1015.6
20260506071537 55 101 2.0 5.0 0.00 0.00 0.00 89 1015.5
20260506071021 55 107 3.0 6.0 0.00 0.00 0.00 89 1015.5
20260506070520 55 106 2.0 6.0 0.00 0.00 0.00 89 1015.5
20260506062021 56 98 1.0 4.0 0.00 0.00 0.00 88 1015.2
20260506061540 56 98 2.0 4.0 0.00 0.00 0.00 88 1015.1
20260506061023 56 145 2.0 4.0 0.00 0.00 0.00 88 1015.1
20260506060521 56 77 2.0 6.0 0.00 0.00 0.00 87 1015.1
20260506051021 58 127 3.0 10.0 0.00 0.00 0.00 84 1014.8
20260506050521 58 110 5.0 12.0 0.00 0.00 0.00 83 1014.8
20260506045021 58 123 6.0 11.0 0.00 0.00 0.00 83 1014.7
20260506044548 58 132 5.0 11.0 0.00 0.00 0.00 83 1014.6
20260506044020 58 131 6.0 10.0 0.00 0.00 0.00 83 1014.6
20260506043520 58 124 5.0 10.0 0.00 0.00 0.00 83 1014.6
20260506043037 59 115 5.0 10.0 0.00 0.00 0.00 83 1014.5
20260506042522 59 143 5.0 9.0 0.00 0.00 0.00 83 1014.5
20260506042021 59 148 5.0 9.0 0.00 0.00 0.00 83 1014.4
20260506041548 59 133 3.0 8.0 0.00 0.00 0.00 83 1014.4
20260506041025 58 120 2.0 7.0 0.00 0.00 0.00 83 1014.4
20260506040525 58 133 2.0 7.0 0.00 0.00 0.00 83 1014.3
20260506040044 59 126 4.0 9.0 0.00 0.00 0.00 82 1014.3
20260506035521 59 129 4.0 10.0 0.00 0.00 0.00 82 1014.2
20260506035021 59 136 5.0 10.0 0.00 0.00 0.00 82 1014.1
20260506034547 59 144 5.0 10.0 0.00 0.00 0.00 82 1014.2
20260506034021 59 217 6.0 9.0 0.00 0.00 0.00 82 1014.0
20260506033521 59 148 4.0 11.0 0.00 0.00 0.00 82 1013.9
20260506033042 59 130 4.0 11.0 0.00 0.00 0.00 82 1013.9
20260506032521 59 139 5.0 11.0 0.00 0.00 0.00 82 1013.8
20260506032022 59 127 5.0 10.0 0.00 0.00 0.00 82 1013.9
20260506031539 59 136 5.0 11.0 0.00 0.00 0.00 82 1013.9
20260506031021 60 178 5.0 11.0 0.00 0.00 0.00 82 1013.9
20260506030524 60 134 5.0 10.0 0.00 0.00 0.00 81 1013.9
20260506030037 60 117 4.0 9.0 0.00 0.00 0.00 81 1013.8
20260506025521 60 245 4.0 9.0 0.00 0.00 0.00 81 1013.8
20260506025020 61 136 4.0 9.0 0.00 0.00 0.00 80 1013.8
20260506024557 61 124 4.0 10.0 0.00 0.00 0.00 80 1013.9
20260506024023 61 144 5.0 10.0 0.00 0.00 0.00 80 1013.9
20260506023524 61 191 3.0 9.0 0.00 0.00 0.00 80 1013.9
20260506023044 61 122 5.0 9.0 0.00 0.00 0.00 79 1013.9
20260506022525 62 146 3.0 7.0 0.00 0.00 0.00 79 1013.9
20260506022022 62 146 3.0 11.0 0.00 0.00 0.00 79 1014.0
20260506021551 61 120 5.0 11.0 0.00 0.00 0.00 79 1014.0
20260506021022 61 176 4.0 10.0 0.00 0.00 0.00 79 1014.0
20260506020523 62 141 4.0 10.0 0.00 0.00 0.00 79 1014.0
20260506020042 62 155 4.0 10.0 0.00 0.00 0.00 78 1014.0
20260506015524 62 150 4.0 9.0 0.00 0.00 0.00 78 1014.0
20260506015021 62 149 4.0 9.0 0.00 0.00 0.00 77 1014.0
20260506014537 62 226 3.0 8.0 0.00 0.00 0.00 77 1014.0
20260506014020 62 143 4.0 8.0 0.00 0.00 0.00 76 1014.1
20260506013522 62 153 3.0 8.0 0.00 0.00 0.00 77 1014.1
20260506013044 62 142 4.0 8.0 0.00 0.00 0.00 77 1014.1
20260506012524 62 205 3.0 8.0 0.00 0.00 0.00 77 1014.1
20260506012023 62 130 4.0 8.0 0.00 0.00 0.00 77 1014.1
20260506011609 62 149 4.0 8.0 0.00 0.00 0.00 77 1014.0
20260506011024 62 151 4.0 10.0 0.00 0.00 0.00 77 1014.0
20260506010523 62 184 4.0 10.0 0.00 0.00 0.00 77 1014.1
20260506010044 62 180 4.0 10.0 0.00 0.00 0.00 77 1014.2
20260506005522 62 108 4.0 11.0 0.00 0.00 0.00 76 1014.1
20260506005021 62 219 3.0 11.0 0.00 0.00 0.00 78 1014.1
20260506004545 62 146 4.0 11.0 0.00 0.00 0.00 78 1014.1
20260506004021 62 157 5.0 11.0 0.00 0.00 0.00 78 1014.2
20260506003521 62 128 5.0 10.0 0.00 0.00 0.00 78 1014.1
20260506003042 62 131 5.0 10.0 0.00 0.00 0.00 79 1014.2
20260506002521 62 229 5.0 11.0 0.00 0.00 0.00 78 1014.3
20260506002022 62 185 5.0 11.0 0.00 0.00 0.00 78 1014.3
20260506001541 62 133 5.0 11.0 0.00 0.00 0.00 78 1014.3
20260506001021 62 141 4.0 11.0 0.00 0.00 0.00 78 1014.3
20260506000521 62 210 5.0 11.0 0.00 0.00 0.00 78 1014.4
20260506000045 62 123 5.0 11.0 0.00 0.00 0.00 77 1014.4
20260505235524 62 130 5.0 11.0 0.00 0.00 0.00 78 1014.5
20260505235020 62 159 4.0 9.0 0.00 0.00 0.00 78 1014.5
20260505234546 62 165 4.0 10.0 0.00 0.00 0.00 78 1014.6
20260505234026 62 173 4.0 10.0 0.00 0.00 0.00 78 1014.6
20260505233522 62 146 5.0 11.0 0.00 0.00 0.00 77 1014.6
20260505233045 62 210 5.0 11.0 0.00 0.00 0.00 78 1014.7
20260505232527 62 143 5.0 11.0 0.00 0.00 0.00 78 1014.7
20260505232023 62 141 6.0 11.0 0.00 0.00 0.00 78 1014.8
20260505231544 62 179 4.0 9.0 0.00 0.00 0.00 78 1014.9
20260505231021 62 148 4.0 11.0 0.00 0.00 0.00 79 1014.9
20260505230521 62 205 5.0 11.0 0.00 0.00 0.00 78 1015.0
20260505230038 62 131 5.0 11.0 0.00 0.00 0.00 79 1014.9
20260505225524 62 182 5.0 11.0 0.00 0.00 0.00 78 1014.9
20260505225021 62 176 6.0 11.0 0.00 0.00 0.00 78 1015.1
20260505224538 62 172 4.0 11.0 0.00 0.00 0.00 79 1015.2
20260505224020 62 154 4.0 12.0 0.00 0.00 0.00 78 1015.2
20260505223521 62 153 5.0 12.0 0.00 0.00 0.00 78 1015.3
20260505223037 62 158 5.0 11.0 0.00 0.00 0.00 77 1015.3
20260505222523 62 167 4.0 8.0 0.00 0.00 0.00 78 1015.3
20260505222023 62 155 4.0 9.0 0.00 0.00 0.00 78 1015.2
20260505221536 62 207 5.0 9.0 0.00 0.00 0.00 78 1015.3
20260505221025 62 187 4.0 11.0 0.00 0.00 0.00 78 1015.3
20260505220520 62 194 4.0 11.0 0.00 0.00 0.00 79 1015.2
20260505220056 62 211 5.0 10.0 0.00 0.00 0.00 79 1015.4
20260505215523 62 159 5.0 10.0 0.00 0.00 0.00 79 1015.4
20260505215023 62 160 4.0 10.0 0.00 0.00 0.00 79 1015.5
20260505214550 62 141 5.0 10.0 0.00 0.00 0.00 79 1015.6
20260505214023 62 184 5.0 11.0 0.00 0.00 0.00 79 1015.6
20260505213521 62 184 5.0 11.0 0.00 0.00 0.00 79 1015.7
20260505213041 62 209 5.0 11.0 0.00 0.00 0.00 79 1015.6
20260505212521 61 216 6.0 11.0 0.00 0.00 0.00 79 1015.7
20260505212021 61 179 6.0 11.0 0.00 0.00 0.00 79 1015.7
20260505211542 61 185 5.0 11.0 0.00 0.00 0.00 80 1015.7
20260505211021 61 161 6.0 12.0 0.00 0.00 0.00 79 1015.7
20260505210520 61 130 5.0 12.0 0.00 0.00 0.00 80 1015.8
20260505210045 61 201 6.0 12.0 0.00 0.00 0.00 80 1015.8
20260505205526 61 160 7.0 11.0 0.00 0.00 0.00 80 1015.9
20260505205024 61 179 5.0 12.0 0.00 0.00 0.00 80 1015.9
20260505204545 61 65 6.0 12.0 0.00 0.00 0.00 80 1015.8
20260505204023 61 179 7.0 12.0 0.00 0.00 0.00 80 1015.8
20260505203523 61 164 6.0 10.0 0.00 0.00 0.00 80 1015.9
20260505203043 61 183 5.0 10.0 0.00 0.00 0.00 80 1015.8
20260505202520 61 158 5.0 11.0 0.00 0.00 0.00 80 1015.8
20260505202022 61 174 5.0 11.0 0.00 0.00 0.00 80 1015.8
20260505201546 61 146 5.0 9.0 0.00 0.00 0.00 80 1015.8
20260505201022 61 167 5.0 10.0 0.00 0.00 0.00 80 1015.7
20260505200522 61 205 5.0 10.0 0.00 0.00 0.00 80 1015.8
20260505200040 61 191 5.0 10.0 0.00 0.00 0.00 80 1015.8
20260505195522 61 157 6.0 10.0 0.00 0.00 0.00 80 1015.8
20260505195022 61 137 6.0 10.0 0.00 0.00 0.00 81 1015.9
20260505194538 61 283 5.0 9.0 0.00 0.00 0.00 81 1015.9
20260505194027 61 172 5.0 8.0 0.00 0.00 0.00 81 1016.0
20260505193522 61 236 4.0 7.0 0.00 0.00 0.00 82 1015.9
20260505193042 61 172 3.0 10.0 0.00 0.00 0.00 83 1015.8
20260505192522 61 203 4.0 10.0 0.00 0.00 0.00 82 1015.9
20260505192022 60 156 4.0 10.0 0.00 0.00 0.00 83 1016.0
20260505191548 60 129 5.0 10.0 0.00 0.00 0.00 81 1015.8
20260505191022 61 174 6.0 10.0 0.00 0.00 0.00 81 1015.8
20260505190526 61 167 4.0 10.0 0.00 0.00 0.00 82 1015.8
20260505190043 61 210 4.0 10.0 0.00 0.00 0.00 81 1015.9